,,PA_Meas_PMT16A,,PR_Meas_QMR101_102,,RH_Meas_QMH101,,SR_Meas_QMS101,,TA_Meas_QMH101,,GenWind,,GenWind,
time,status,PA,status,PR,status,RH,status,SR,status,TA,status,DirAvg,status,SpdAvg,
2011-12-30, 00:00:04,VALID,918.533,VALID,0,VALID,96.5734,VALID,0.107441,VALID,21.3575,VALID,117,VALID,0.332812,
2011-12-30, 00:01:04,VALID,918.502,VALID,0,VALID,96.5887,VALID,0.107441,VALID,21.3575,VALID,117,VALID,0.0617188,
2011-12-30, 00:02:04,VALID,918.516,VALID,0,VALID,96.6039,VALID,0,VALID,21.377,VALID,117,VALID,0.0929687,
2011-12-30, 00:03:04,VALID,918.493,VALID,0,VALID,96.5963,VALID,0.107441,VALID,21.3965,VALID,117,VALID,0.212891,
2011-12-30, 00:04:04,VALID,918.492,VALID,0,VALID,96.5963,VALID,0,VALID,21.4177,VALID,117,VALID,0.470703,
2011-12-30, 00:05:04,VALID,918.493,VALID,0,VALID,96.5582,VALID,0.107441,VALID,21.3965,VALID,117,VALID,0.566016,
2011-12-30, 00:06:04,VALID,918.457,VALID,0,VALID,96.5201,VALID,0,VALID,21.377,VALID,117,VALID,0.599219,
2011-12-30, 00:07:04,VALID,918.485,VALID,0,VALID,96.5201,VALID,0,VALID,21.3591,VALID,117,VALID,0.651953,
2011-12-30, 00:08:04,VALID,918.462,VALID,0,VALID,96.5124,VALID,0,VALID,21.3786,VALID,117,VALID,0.691406,
2011-12-30, 00:09:04,VALID,918.452,VALID,0,VALID,96.5353,VALID,0,VALID,21.3786,VALID,117,VALID,0.408594,
2011-12-30, 00:10:04,VALID,918.451,VALID,0,VALID,96.4972,VALID,0,VALID,21.3591,VALID,117,VALID,0.54375,
2011-12-30, 00:11:04,VALID,918.429,VALID,0,VALID,96.4667,VALID,0,VALID,21.3786,VALID,117,VALID,0.811328,
2011-12-30, 00:12:04,VALID,918.4,VALID,0,VALID,96.4515,VALID,0,VALID,21.3786,VALID,117,VALID,0.663672,
2011-12-30, 00:13:04,VALID,918.396,VALID,0,VALID,96.4438,VALID,0,VALID,21.3786,VALID,117,VALID,0.582812,
2011-12-30, 00:14:04,VALID,918.414,VALID,0,VALID,96.3981,VALID,0,VALID,21.3591,VALID,117,VALID,0.472266,
2011-12-30, 00:15:04,VALID,918.39,VALID,0,VALID,96.4362,VALID,0,VALID,21.3786,VALID,117,VALID,0.837109,
2011-12-30, 00:16:04,VALID,918.391,VALID,0,VALID,96.4515,VALID,0,VALID,21.3591,VALID,117,VALID,0.549219,
2011-12-30, 00:17:04,VALID,918.35,VALID,0,VALID,96.4591,VALID,0,VALID,21.3998,VALID,117,VALID,0.576172,
2011-12-30, 00:18:04,VALID,918.381,VALID,0,VALID,96.4438,VALID,0,VALID,21.3396,VALID,117,VALID,0.791406,
2011-12-30, 00:19:04,VALID,918.361,VALID,0,VALID,96.4286,VALID,0,VALID,21.3608,VALID,117,VALID,0.677734,
2011-12-30, 00:20:04,VALID,918.343,VALID,0,VALID,96.4286,VALID,0,VALID,21.3201,VALID,117,VALID,0.553906,
2011-12-30, 00:21:04,VALID,918.327,VALID,0,VALID,96.421,VALID,0,VALID,21.3006,VALID,117,VALID,0.625781,
2011-12-30, 00:22:04,VALID,918.338,VALID,0,VALID,96.4515,VALID,0,VALID,21.3201,VALID,117,VALID,0.996484,
2011-12-30, 00:23:04,VALID,918.367,VALID,0,VALID,96.4819,VALID,0,VALID,21.2795,VALID,117,VALID,0.917188,
2011-12-30, 00:24:04,VALID,918.355,VALID,0,VALID,96.5201,VALID,0,VALID,21.3006,VALID,117,VALID,1.20742,
2011-12-30, 00:25:04,VALID,918.357,VALID,0,VALID,96.5277,VALID,0,VALID,21.3006,VALID,117,VALID,1.26328,
2011-12-30, 00:26:04,VALID,918.359,VALID,0,VALID,96.5353,VALID,0,VALID,21.26,VALID,117,VALID,0.88125,
2011-12-30, 00:27:04,VALID,918.365,VALID,0,VALID,96.4743,VALID,0.107441,VALID,21.2616,VALID,117,VALID,0.8,
2011-12-30, 00:28:04,VALID,918.344,VALID,0,VALID,96.4438,VALID,0,VALID,21.221,VALID,117,VALID,0.859766,
2011-12-30, 00:29:04,VALID,918.344,VALID,0,VALID,96.4133,VALID,0,VALID,21.221,VALID,117,VALID,1.03242,
2011-12-30, 00:30:04,VALID,918.33,VALID,0,VALID,96.3066,VALID,0,VALID,21.2226,VALID,117,VALID,1.16133,
2011-12-30, 00:31:04,VALID,918.319,VALID,0,VALID,96.2228,VALID,0,VALID,21.2015,VALID,117,VALID,0.804688,
2011-12-30, 00:32:04,VALID,918.322,VALID,0,VALID,96.1389,VALID,0.107441,VALID,21.2405,VALID,117,VALID,0.470313,
2011-12-30, 00:33:04,VALID,918.338,VALID,0,VALID,95.9712,VALID,0,VALID,21.2421,VALID,118,VALID,0.326953,
2011-12-30, 00:34:04,VALID,918.329,VALID,0,VALID,95.2165,VALID,0,VALID,21.2015,VALID,143,VALID,0.794922,
2011-12-30, 00:35:04,VALID,918.318,VALID,0,VALID,94.3626,VALID,0,VALID,21.221,VALID,138,VALID,0.533984,
2011-12-30, 00:36:04,VALID,918.291,VALID,0,VALID,93.0285,VALID,0,VALID,21.2421,VALID,119,VALID,1.16094,
2011-12-30, 00:37:04,VALID,918.277,VALID,0,VALID,92.3348,VALID,0,VALID,21.2421,VALID,120,VALID,1.19453,
2011-12-30, 00:38:04,VALID,918.252,VALID,0,VALID,92.1366,VALID,0,VALID,21.2437,VALID,120,VALID,0.605859,
2011-12-30, 00:39:04,VALID,918.238,VALID,0,VALID,91.7478,VALID,0,VALID,21.1836,VALID,120,VALID,0.91875,
2011-12-30, 00:40:04,VALID,918.214,VALID,0,VALID,91.6106,VALID,0,VALID,21.1852,VALID,120,VALID,1.13477,
2011-12-30, 00:41:04,VALID,918.226,VALID,0,VALID,91.4657,VALID,0,VALID,21.1461,VALID,131,VALID,1.17344,
2011-12-30, 00:42:04,VALID,918.259,VALID,0,VALID,91.5344,VALID,0,VALID,21.1071,VALID,128,VALID,0.692187,
2011-12-30, 00:43:04,VALID,918.246,VALID,0,VALID,91.5572,VALID,0,VALID,21.0665,VALID,133,VALID,0.263281,
2011-12-30, 00:44:04,VALID,918.232,VALID,0,VALID,91.5572,VALID,0,VALID,21.0665,VALID,152,VALID,1.03086,
2011-12-30, 00:45:04,VALID,918.235,VALID,0,VALID,91.7631,VALID,0,VALID,21.0681,VALID,168,VALID,0.923828,
2011-12-30, 00:46:04,VALID,918.222,VALID,0,VALID,91.3743,VALID,0,VALID,21.0275,VALID,146,VALID,0.902734,
2011-12-30, 00:47:04,VALID,918.189,VALID,0,VALID,91.2675,VALID,0,VALID,21.008,VALID,158,VALID,0.763672,
2011-12-30, 00:48:04,VALID,918.194,VALID,0,VALID,91.359,VALID,0,VALID,20.9885,VALID,157,VALID,0.620703,
2011-12-30, 00:49:04,VALID,918.197,VALID,0,VALID,91.2904,VALID,0,VALID,20.969,VALID,131,VALID,0.694531,
2011-12-30, 00:50:04,VALID,918.165,VALID,0,VALID,91.1379,VALID,0,VALID,20.9495,VALID,130,VALID,0.995703,
2011-12-30, 00:51:04,VALID,918.134,VALID,0,VALID,91.1456,VALID,0,VALID,20.9105,VALID,137,VALID,0.797266,
2011-12-30, 00:52:04,VALID,918.137,VALID,0,VALID,90.833,VALID,0,VALID,20.912,VALID,145,VALID,1.33828,
2011-12-30, 00:53:04,VALID,918.144,VALID,0,VALID,90.3756,VALID,0,VALID,20.873,VALID,147,VALID,1.36016,
2011-12-30, 00:54:04,VALID,918.143,VALID,0,VALID,90.0097,VALID,0,VALID,20.8925,VALID,149,VALID,1.08008,
2011-12-30, 00:55:04,VALID,918.132,VALID,0,VALID,89.3541,VALID,0,VALID,20.8714,VALID,149,VALID,1.39102,
2011-12-30, 00:56:04,VALID,918.141,VALID,0,VALID,89.3541,VALID,0,VALID,20.891,VALID,149,VALID,0.936719,
2011-12-30, 00:57:04,VALID,918.135,VALID,0,VALID,88.7899,VALID,0,VALID,20.8925,VALID,149,VALID,1.44219,
2011-12-30, 00:58:04,VALID,918.138,VALID,0,VALID,88.4392,VALID,0,VALID,20.8925,VALID,149,VALID,1.59102,
2011-12-30, 00:59:04,VALID,918.178,VALID,0,VALID,88.1724,VALID,0,VALID,20.891,VALID,141,VALID,1.30547,
2011-12-30, 01:00:04,VALID,918.172,VALID,0,VALID,88.3935,VALID,0,VALID,20.912,VALID,142,VALID,0.789063,
2011-12-30, 01:01:04,VALID,918.161,VALID,0,VALID,88.3325,VALID,0,VALID,20.8925,VALID,143,VALID,0.820703,
2011-12-30, 01:02:04,VALID,918.141,VALID,0,VALID,88.4316,VALID,0,VALID,20.8519,VALID,144,VALID,1.08477,
2011-12-30, 01:03:04,VALID,918.144,VALID,0,VALID,88.3478,VALID,0,VALID,20.8519,VALID,147,VALID,1.22461,
2011-12-30, 01:04:04,VALID,918.113,VALID,0,VALID,88.485,VALID,0,VALID,20.8925,VALID,147,VALID,0.916797,
2011-12-30, 01:05:04,VALID,918.098,VALID,0,VALID,88.5155,VALID,0,VALID,20.8925,VALID,147,VALID,0.916016,
2011-12-30, 01:06:04,VALID,918.045,VALID,0,VALID,88.2487,VALID,0,VALID,20.8714,VALID,147,VALID,0.873828,
2011-12-30, 01:07:04,VALID,918.012,VALID,0,VALID,88.1191,VALID,0.107441,VALID,20.891,VALID,147,VALID,0.766016,
2011-12-30, 01:08:04,VALID,918.017,VALID,0,VALID,88.1572,VALID,0,VALID,20.8699,VALID,147,VALID,0.567578,
2011-12-30, 01:09:04,VALID,918.003,VALID,0,VALID,88.4621,VALID,0,VALID,20.8504,VALID,147,VALID,0.446875,
2011-12-30, 01:10:04,VALID,917.987,VALID,0,VALID,88.5765,VALID,0.107441,VALID,20.8714,VALID,147,VALID,0.615625,
2011-12-30, 01:11:04,VALID,918,VALID,0,VALID,88.8204,VALID,0,VALID,20.891,VALID,147,VALID,0.424219,
2011-12-30, 01:12:04,VALID,917.983,VALID,0,VALID,89.0339,VALID,0,VALID,20.8699,VALID,147,VALID,0.525391,
2011-12-30, 01:13:04,VALID,917.991,VALID,0,VALID,89.3159,VALID,0,VALID,20.9105,VALID,147,VALID,0.274219,
2011-12-30, 01:14:04,VALID,917.988,VALID,0,VALID,89.6056,VALID,0,VALID,20.9089,VALID,147,VALID,0.398828,
2011-12-30, 01:15:04,VALID,917.975,VALID,0,VALID,89.7962,VALID,0,VALID,20.8894,VALID,147,VALID,0.608984,
2011-12-30, 01:16:04,VALID,917.993,VALID,0,VALID,89.9792,VALID,0,VALID,20.8699,VALID,147,VALID,0.430078,
2011-12-30, 01:17:04,VALID,917.978,VALID,0,VALID,90.1316,VALID,0,VALID,20.8113,VALID,147,VALID,0.237109,
2011-12-30, 01:18:04,VALID,917.953,VALID,0,VALID,90.5281,VALID,0,VALID,20.7918,VALID,147,VALID,0.371875,
2011-12-30, 01:19:04,VALID,917.963,VALID,0,VALID,90.8635,VALID,0,VALID,20.7918,VALID,147,VALID,0.219531,
2011-12-30, 01:20:04,VALID,917.941,VALID,0,VALID,90.894,VALID,0,VALID,20.7918,VALID,147,VALID,0.0234375,
2011-12-30, 01:21:04,VALID,917.94,VALID,0,VALID,90.9778,VALID,0,VALID,20.8129,VALID,147,VALID,0.0507813,
2011-12-30, 01:22:04,VALID,917.933,VALID,0,VALID,90.8635,VALID,0,VALID,20.8145,VALID,147,VALID,0.197266,
2011-12-30, 01:23:04,VALID,917.939,VALID,0,VALID,90.429,VALID,0,VALID,20.8145,VALID,147,VALID,0.257422,
2011-12-30, 01:24:04,VALID,917.939,VALID,0,VALID,89.7962,VALID,0,VALID,20.7934,VALID,147,VALID,0.473047,
2011-12-30, 01:25:04,VALID,917.934,VALID,0,VALID,89.7124,VALID,0,VALID,20.834,VALID,147,VALID,0.471094,
2011-12-30, 01:26:04,VALID,917.888,VALID,0,VALID,89.3312,VALID,0,VALID,20.8129,VALID,147,VALID,0.639453,
2011-12-30, 01:27:04,VALID,917.865,VALID,0,VALID,89.8115,VALID,0,VALID,20.8145,VALID,147,VALID,0.578906,
2011-12-30, 01:28:04,VALID,917.923,VALID,0,VALID,90.1393,VALID,0,VALID,20.717,VALID,147,VALID,0.710156,
2011-12-30, 01:29:04,VALID,917.894,VALID,0,VALID,89.9106,VALID,0,VALID,20.5999,VALID,147,VALID,0.891406,
2011-12-30, 01:30:04,VALID,917.885,VALID,0,VALID,89.9258,VALID,0,VALID,20.5999,VALID,147,VALID,1.00859,
2011-12-30, 01:31:04,VALID,917.856,VALID,0,VALID,89.9639,VALID,0,VALID,20.6179,VALID,147,VALID,0.832422,
2011-12-30, 01:32:04,VALID,917.87,VALID,0,VALID,90.1012,VALID,0,VALID,20.5999,VALID,147,VALID,0.654297,
2011-12-30, 01:33:04,VALID,917.859,VALID,0,VALID,90.4442,VALID,0,VALID,20.5594,VALID,147,VALID,0.51875,
2011-12-30, 01:34:04,VALID,917.848,VALID,0,VALID,90.894,VALID,0,VALID,20.5414,VALID,147,VALID,0.590234,
2011-12-30, 01:35:04,VALID,917.853,VALID,0,VALID,91.2599,VALID,0,VALID,20.4439,VALID,147,VALID,0.659375,
2011-12-30, 01:36:04,VALID,917.853,VALID,0,VALID,92.1595,VALID,0,VALID,20.3854,VALID,147,VALID,0.689453,
2011-12-30, 01:37:04,VALID,917.86,VALID,0,VALID,93.1353,VALID,0,VALID,20.3643,VALID,147,VALID,0.769531,
2011-12-30, 01:38:04,VALID,917.83,VALID,0,VALID,93.6994,VALID,0,VALID,20.3448,VALID,147,VALID,0.850781,
2011-12-30, 01:39:04,VALID,917.836,VALID,0,VALID,94.3093,VALID,0.107441,VALID,20.3253,VALID,147,VALID,0.950781,
2011-12-30, 01:40:04,VALID,917.82,VALID,0,VALID,94.5913,VALID,0.107441,VALID,20.3058,VALID,147,VALID,0.85,
2011-12-30, 01:41:04,VALID,917.813,VALID,0,VALID,94.7209,VALID,0,VALID,20.2863,VALID,147,VALID,0.748828,
2011-12-30, 01:42:04,VALID,917.813,VALID,0,VALID,94.7438,VALID,0,VALID,20.2863,VALID,147,VALID,0.425391,
2011-12-30, 01:43:04,VALID,917.771,VALID,0,VALID,94.5685,VALID,0,VALID,20.2879,VALID,147,VALID,0.508984,
2011-12-30, 01:44:04,VALID,917.755,VALID,0,VALID,94.416,VALID,0,VALID,20.2668,VALID,147,VALID,0.322656,
2011-12-30, 01:45:04,VALID,917.761,VALID,0,VALID,94.2483,VALID,0.107441,VALID,20.2668,VALID,147,VALID,0.184375,
2011-12-30, 01:46:04,VALID,917.744,VALID,0,VALID,94.1339,VALID,0,VALID,20.2863,VALID,147,VALID,0.194531,
2011-12-30, 01:47:04,VALID,917.731,VALID,0,VALID,94.1187,VALID,0,VALID,20.3058,VALID,147,VALID,0,
2011-12-30, 01:48:04,VALID,917.737,VALID,0,VALID,94.073,VALID,0,VALID,20.3448,VALID,147,VALID,0,
2011-12-30, 01:49:04,VALID,917.746,VALID,0,VALID,93.8976,VALID,0,VALID,20.3448,VALID,147,VALID,0.257031,
2011-12-30, 01:50:04,VALID,917.765,VALID,0,VALID,93.707,VALID,0,VALID,20.3643,VALID,147,VALID,0,
2011-12-30, 01:51:04,VALID,917.752,VALID,0,VALID,93.6384,VALID,0,VALID,20.3448,VALID,147,VALID,0,
2011-12-30, 01:52:04,VALID,917.771,VALID,0,VALID,93.6689,VALID,0,VALID,20.3643,VALID,147,VALID,0.246094,
2011-12-30, 01:53:04,VALID,917.753,VALID,0,VALID,93.646,VALID,0,VALID,20.3643,VALID,147,VALID,0.159766,
2011-12-30, 01:54:04,VALID,917.731,VALID,0,VALID,93.6994,VALID,0,VALID,20.3838,VALID,147,VALID,0,
2011-12-30, 01:55:04,VALID,917.714,VALID,0,VALID,93.5851,VALID,0,VALID,20.3838,VALID,147,VALID,0,
2011-12-30, 01:56:04,VALID,917.701,VALID,0,VALID,93.4173,VALID,0.107441,VALID,20.3643,VALID,147,VALID,0,
2011-12-30, 01:57:04,VALID,917.727,VALID,0,VALID,93.6155,VALID,0,VALID,20.3643,VALID,147,VALID,0,
2011-12-30, 01:58:04,VALID,917.738,VALID,0,VALID,93.8747,VALID,0,VALID,20.3823,VALID,147,VALID,0,
2011-12-30, 01:59:04,VALID,917.753,VALID,0,VALID,94.0348,VALID,0,VALID,20.4618,VALID,147,VALID,0,
2011-12-30, 02:00:04,VALID,917.749,VALID,0,VALID,93.8443,VALID,0,VALID,20.4618,VALID,147,VALID,0,
2011-12-30, 02:01:04,VALID,917.74,VALID,0,VALID,93.3335,VALID,0,VALID,20.4618,VALID,147,VALID,0,
2011-12-30, 02:02:04,VALID,917.747,VALID,0,VALID,93.3335,VALID,0,VALID,20.4408,VALID,147,VALID,0,
2011-12-30, 02:03:04,VALID,917.765,VALID,0,VALID,93.242,VALID,0,VALID,20.4423,VALID,147,VALID,0,
2011-12-30, 02:04:04,VALID,917.766,VALID,0,VALID,93.1353,VALID,0,VALID,20.4228,VALID,147,VALID,0,
2011-12-30, 02:05:04,VALID,917.723,VALID,0,VALID,92.9294,VALID,0,VALID,20.4228,VALID,147,VALID,0,
2011-12-30, 02:06:04,VALID,917.738,VALID,0,VALID,92.9371,VALID,0,VALID,20.4228,VALID,147,VALID,0,
2011-12-30, 02:07:04,VALID,917.689,VALID,0,VALID,93.0362,VALID,0,VALID,20.4033,VALID,147,VALID,0,
2011-12-30, 02:08:04,VALID,917.684,VALID,0,VALID,93.1581,VALID,0,VALID,20.4228,VALID,147,VALID,0,
2011-12-30, 02:09:04,VALID,917.671,VALID,0,VALID,93.0819,VALID,0,VALID,20.3838,VALID,147,VALID,0,
2011-12-30, 02:10:04,VALID,917.665,VALID,0,VALID,93.0819,VALID,0,VALID,20.3448,VALID,147,VALID,0,
2011-12-30, 02:11:04,VALID,917.678,VALID,0,VALID,93.1886,VALID,0,VALID,20.3253,VALID,147,VALID,0,
2011-12-30, 02:12:04,VALID,917.656,VALID,0,VALID,93.3564,VALID,0.107441,VALID,20.3253,VALID,147,VALID,0,
2011-12-30, 02:13:04,VALID,917.651,VALID,0,VALID,93.4555,VALID,0,VALID,20.3253,VALID,147,VALID,0,
2011-12-30, 02:14:04,VALID,917.65,VALID,0,VALID,93.5317,VALID,0,VALID,20.3058,VALID,147,VALID,0,
2011-12-30, 02:15:04,VALID,917.667,VALID,0,VALID,93.5927,VALID,0,VALID,20.3058,VALID,147,VALID,0,
2011-12-30, 02:16:04,VALID,917.659,VALID,0,VALID,93.3487,VALID,0.107441,VALID,20.2863,VALID,147,VALID,0,
2011-12-30, 02:17:04,VALID,917.651,VALID,0,VALID,93.3411,VALID,0,VALID,20.2473,VALID,147,VALID,0,
2011-12-30, 02:18:04,VALID,917.634,VALID,0,VALID,93.2801,VALID,0,VALID,20.2083,VALID,147,VALID,0,
2011-12-30, 02:19:04,VALID,917.639,VALID,0,VALID,93.5469,VALID,0,VALID,20.1693,VALID,147,VALID,0,
2011-12-30, 02:20:04,VALID,917.612,VALID,0,VALID,93.8366,VALID,0,VALID,20.1903,VALID,147,VALID,0,
2011-12-30, 02:21:04,VALID,917.639,VALID,0,VALID,93.89,VALID,0,VALID,20.2098,VALID,147,VALID,0,
2011-12-30, 02:22:04,VALID,917.607,VALID,0,VALID,94.073,VALID,0,VALID,20.2083,VALID,147,VALID,0,
2011-12-30, 02:23:04,VALID,917.617,VALID,0,VALID,94.012,VALID,0,VALID,20.2083,VALID,147,VALID,0,
2011-12-30, 02:24:04,VALID,917.592,VALID,0,VALID,93.8824,VALID,0,VALID,20.1888,VALID,147,VALID,0.0140625,
2011-12-30, 02:25:04,VALID,917.598,VALID,0,VALID,93.8976,VALID,0,VALID,20.1888,VALID,147,VALID,0.424609,
2011-12-30, 02:26:04,VALID,917.583,VALID,0,VALID,93.8976,VALID,0,VALID,20.1693,VALID,147,VALID,0.213672,
2011-12-30, 02:27:04,VALID,917.577,VALID,0,VALID,93.9052,VALID,0,VALID,20.1498,VALID,147,VALID,0.155859,
2011-12-30, 02:28:04,VALID,917.595,VALID,0,VALID,94.1034,VALID,0,VALID,20.1693,VALID,147,VALID,0.336328,
2011-12-30, 02:29:04,VALID,917.578,VALID,0,VALID,94.1873,VALID,0,VALID,20.1888,VALID,147,VALID,0.649219,
2011-12-30, 02:30:04,VALID,917.548,VALID,0,VALID,94.2864,VALID,0,VALID,20.1888,VALID,147,VALID,0.289063,
2011-12-30, 02:31:04,VALID,917.524,VALID,0,VALID,94.3474,VALID,0.107441,VALID,20.2293,VALID,147,VALID,0,
2011-12-30, 02:32:04,VALID,917.527,VALID,0,VALID,94.3474,VALID,0,VALID,20.2083,VALID,147,VALID,0,
2011-12-30, 02:33:04,VALID,917.508,VALID,0,VALID,94.3703,VALID,0,VALID,20.2278,VALID,147,VALID,0.196484,
2011-12-30, 02:34:04,VALID,917.51,VALID,0,VALID,94.3931,VALID,0,VALID,20.2083,VALID,147,VALID,0.433203,
2011-12-30, 02:35:04,VALID,917.516,VALID,0,VALID,94.4008,VALID,0,VALID,20.2083,VALID,147,VALID,0.675,
2011-12-30, 02:36:04,VALID,917.506,VALID,0,VALID,94.477,VALID,0,VALID,20.1903,VALID,147,VALID,0.654297,
2011-12-30, 02:37:04,VALID,917.505,VALID,0,VALID,94.6218,VALID,0,VALID,20.1693,VALID,147,VALID,0.898047,
2011-12-30, 02:38:04,VALID,917.464,VALID,0,VALID,94.8429,VALID,0,VALID,20.1303,VALID,147,VALID,0.790625,
2011-12-30, 02:39:04,VALID,917.461,VALID,0,VALID,95.0411,VALID,0,VALID,20.1303,VALID,147,VALID,0.630859,
2011-12-30, 02:40:04,VALID,917.487,VALID,0,VALID,95.1936,VALID,0.107441,VALID,20.1093,VALID,147,VALID,0.733203,
2011-12-30, 02:41:04,VALID,917.474,VALID,0,VALID,95.3308,VALID,0,VALID,20.1108,VALID,147,VALID,0.689062,
2011-12-30, 02:42:04,VALID,917.448,VALID,0,VALID,95.4299,VALID,0,VALID,20.1108,VALID,147,VALID,0.766406,
2011-12-30, 02:43:04,VALID,917.461,VALID,0,VALID,95.5671,VALID,0,VALID,20.1108,VALID,147,VALID,0.689453,
2011-12-30, 02:44:04,VALID,917.434,VALID,0,VALID,95.6891,VALID,0,VALID,20.1318,VALID,147,VALID,0.472266,
2011-12-30, 02:45:04,VALID,917.476,VALID,0,VALID,95.7425,VALID,0,VALID,20.1108,VALID,147,VALID,0.424609,
2011-12-30, 02:46:04,VALID,917.465,VALID,0,VALID,95.7806,VALID,0,VALID,20.0718,VALID,147,VALID,0.292578,
2011-12-30, 02:47:04,VALID,917.467,VALID,0,VALID,95.8416,VALID,0,VALID,20.0913,VALID,147,VALID,0.553516,
2011-12-30, 02:48:04,VALID,917.446,VALID,0,VALID,95.9254,VALID,0,VALID,20.0913,VALID,147,VALID,0.278906,
2011-12-30, 02:49:04,VALID,917.432,VALID,0,VALID,95.9331,VALID,0,VALID,20.1123,VALID,147,VALID,0.491797,
2011-12-30, 02:50:04,VALID,917.43,VALID,0,VALID,95.9636,VALID,0,VALID,20.0913,VALID,147,VALID,0.397266,
2011-12-30, 02:51:04,VALID,917.414,VALID,0,VALID,96.0017,VALID,0,VALID,20.1108,VALID,147,VALID,0.284375,
2011-12-30, 02:52:04,VALID,917.408,VALID,0,VALID,96.0017,VALID,0,VALID,20.1108,VALID,147,VALID,0.501953,
2011-12-30, 02:53:04,VALID,917.388,VALID,0,VALID,95.9864,VALID,0,VALID,20.1303,VALID,147,VALID,0.192188,
2011-12-30, 02:54:04,VALID,917.33,VALID,0,VALID,95.895,VALID,0,VALID,20.1303,VALID,147,VALID,0.509375,
2011-12-30, 02:55:04,VALID,917.316,VALID,0,VALID,95.7501,VALID,0,VALID,20.0913,VALID,147,VALID,0.710938,
2011-12-30, 02:56:04,VALID,917.322,VALID,0,VALID,95.6662,VALID,0,VALID,20.1123,VALID,147,VALID,0.544141,
2011-12-30, 02:57:04,VALID,917.294,VALID,0,VALID,95.6205,VALID,0,VALID,20.1108,VALID,147,VALID,0.417578,
2011-12-30, 02:58:04,VALID,917.262,VALID,0,VALID,95.5748,VALID,0,VALID,20.1123,VALID,147,VALID,0.633594,
2011-12-30, 02:59:04,VALID,917.268,VALID,0,VALID,95.529,VALID,0,VALID,20.0913,VALID,147,VALID,0.831641,
2011-12-30, 03:00:04,VALID,917.263,VALID,0,VALID,95.5443,VALID,0,VALID,20.0913,VALID,147,VALID,0.617969,
2011-12-30, 03:01:04,VALID,917.277,VALID,0,VALID,95.5671,VALID,0,VALID,20.1108,VALID,147,VALID,0.727734,
2011-12-30, 03:02:04,VALID,917.254,VALID,0,VALID,95.6357,VALID,0,VALID,20.0913,VALID,147,VALID,0.8375,
2011-12-30, 03:03:04,VALID,917.234,VALID,0,VALID,95.6586,VALID,0,VALID,20.0718,VALID,147,VALID,0.464063,
2011-12-30, 03:04:04,VALID,917.248,VALID,0,VALID,95.7196,VALID,0,VALID,20.0718,VALID,147,VALID,0.577734,
2011-12-30, 03:05:04,VALID,917.225,VALID,0,VALID,95.7425,VALID,0,VALID,20.0328,VALID,141,VALID,1.01211,
2011-12-30, 03:06:04,VALID,917.22,VALID,0,VALID,95.8416,VALID,0,VALID,20.0328,VALID,141,VALID,0.555078,
2011-12-30, 03:07:04,VALID,917.233,VALID,0,VALID,95.895,VALID,0,VALID,19.9923,VALID,141,VALID,0.776953,
2011-12-30, 03:08:04,VALID,917.243,VALID,0,VALID,95.9483,VALID,0,VALID,19.9938,VALID,141,VALID,0.844141,
2011-12-30, 03:09:04,VALID,917.226,VALID,0,VALID,96.0398,VALID,0,VALID,19.9743,VALID,141,VALID,0.4625,
2011-12-30, 03:10:04,VALID,917.227,VALID,0,VALID,96.1084,VALID,0,VALID,19.9743,VALID,141,VALID,0.261719,
2011-12-30, 03:11:04,VALID,917.237,VALID,0,VALID,96.1313,VALID,0,VALID,19.9548,VALID,141,VALID,0.685156,
2011-12-30, 03:12:04,VALID,917.22,VALID,0,VALID,96.1465,VALID,0,VALID,19.9353,VALID,141,VALID,0.340625,
2011-12-30, 03:13:04,VALID,917.21,VALID,0,VALID,96.2075,VALID,0,VALID,19.9353,VALID,141,VALID,0.483984,
2011-12-30, 03:14:04,VALID,917.22,VALID,0,VALID,96.1846,VALID,0,VALID,19.9353,VALID,141,VALID,0.313672,
2011-12-30, 03:15:04,VALID,917.232,VALID,0,VALID,96.1389,VALID,0,VALID,19.9353,VALID,141,VALID,0.326562,
2011-12-30, 03:16:04,VALID,917.252,VALID,0,VALID,96.1236,VALID,0,VALID,19.9158,VALID,141,VALID,0.39375,
2011-12-30, 03:17:04,VALID,917.254,VALID,0,VALID,96.0474,VALID,0,VALID,19.8768,VALID,141,VALID,0.769141,
2011-12-30, 03:18:04,VALID,917.272,VALID,0,VALID,96.0017,VALID,0,VALID,19.8768,VALID,141,VALID,0.728125,
2011-12-30, 03:19:04,VALID,917.271,VALID,0,VALID,95.9559,VALID,0,VALID,19.8378,VALID,141,VALID,0.638672,
2011-12-30, 03:20:04,VALID,917.297,VALID,0,VALID,95.7806,VALID,0,VALID,19.7988,VALID,141,VALID,1.16133,
2011-12-30, 03:21:04,VALID,917.307,VALID,0,VALID,95.6662,VALID,0,VALID,19.7988,VALID,141,VALID,0.854297,
2011-12-30, 03:22:04,VALID,917.32,VALID,0,VALID,95.4985,VALID,0,VALID,19.7793,VALID,141,VALID,1.08945,
2011-12-30, 03:23:04,VALID,917.308,VALID,0,VALID,95.3613,VALID,0,VALID,19.7598,VALID,141,VALID,0.703906,
2011-12-30, 03:24:04,VALID,917.318,VALID,0,VALID,95.2775,VALID,0,VALID,19.7598,VALID,141,VALID,0.817187,
2011-12-30, 03:25:04,VALID,917.293,VALID,0,VALID,95.1479,VALID,0,VALID,19.7403,VALID,141,VALID,0.716016,
2011-12-30, 03:26:04,VALID,917.311,VALID,0,VALID,94.9954,VALID,0,VALID,19.7403,VALID,141,VALID,0.764453,
2011-12-30, 03:27:04,VALID,917.291,VALID,0,VALID,94.9115,VALID,0,VALID,19.7208,VALID,141,VALID,0.804688,
2011-12-30, 03:28:04,VALID,917.292,VALID,0,VALID,94.7591,VALID,0,VALID,19.7208,VALID,141,VALID,0.823828,
2011-12-30, 03:29:04,VALID,917.284,VALID,0,VALID,94.6295,VALID,0,VALID,19.7418,VALID,141,VALID,0.585156,
2011-12-30, 03:30:04,VALID,917.305,VALID,0,VALID,94.3779,VALID,0,VALID,19.7613,VALID,141,VALID,0.776953,
2011-12-30, 03:31:04,VALID,917.338,VALID,0,VALID,94.2178,VALID,0,VALID,19.7403,VALID,141,VALID,0.648828,
2011-12-30, 03:32:04,VALID,917.31,VALID,0,VALID,94.0577,VALID,0,VALID,19.7598,VALID,141,VALID,0.874609,
2011-12-30, 03:33:04,VALID,917.29,VALID,0,VALID,93.8443,VALID,0,VALID,19.7793,VALID,141,VALID,0.601953,
2011-12-30, 03:34:04,VALID,917.296,VALID,0,VALID,93.9205,VALID,0,VALID,19.8183,VALID,141,VALID,0.30625,
2011-12-30, 03:35:04,VALID,917.282,VALID,0,VALID,93.7528,VALID,0,VALID,19.8183,VALID,141,VALID,0.65625,
2011-12-30, 03:36:04,VALID,917.241,VALID,0,VALID,93.6537,VALID,0,VALID,19.8393,VALID,141,VALID,0.903906,
2011-12-30, 03:37:04,VALID,917.277,VALID,0,VALID,93.8214,VALID,0,VALID,19.8393,VALID,141,VALID,0.807813,
2011-12-30, 03:38:04,VALID,917.227,VALID,0,VALID,93.7451,VALID,0,VALID,19.8198,VALID,141,VALID,0.729688,
2011-12-30, 03:39:04,VALID,917.239,VALID,0,VALID,93.6918,VALID,0,VALID,19.8198,VALID,141,VALID,0.834766,
2011-12-30, 03:40:04,VALID,917.247,VALID,0,VALID,93.7299,VALID,0,VALID,19.7988,VALID,141,VALID,0.897266,
2011-12-30, 03:41:04,VALID,917.245,VALID,0,VALID,93.7909,VALID,0,VALID,19.7988,VALID,141,VALID,0.684766,
2011-12-30, 03:42:04,VALID,917.258,VALID,0,VALID,93.8443,VALID,0,VALID,19.8183,VALID,141,VALID,0.462891,
2011-12-30, 03:43:04,VALID,917.268,VALID,0,VALID,93.9357,VALID,0,VALID,19.7793,VALID,141,VALID,0.648438,
2011-12-30, 03:44:04,VALID,917.278,VALID,0,VALID,93.951,VALID,0,VALID,19.7403,VALID,141,VALID,0.753906,
2011-12-30, 03:45:04,VALID,917.283,VALID,0,VALID,93.951,VALID,0,VALID,19.7208,VALID,141,VALID,0.689062,